カタログに戻る

JIELONG-3 DEB

運用中科学PO
NORAD 68688·DEBRIS·🇨🇳 China

打ち上げ Apr 11, 2026 から South China Sea Launch Area

Loading…

次のパス (今後24時間)

TLE

最新Source: Space-Track

元期: Sep 14, 2026, 13:37 UTC

1 68688U 26078B   26257.56786039  .00000281  00000-0  86944-4 0  9991
2 68688  86.5856 245.3377 0249478 244.1544 113.3728 14.21701798 22161

AllMySatでJIELONG-3 DEBをリアルタイム追跡

Download on the App Store